Location: Helion Bumpstead
(52.0500°N, 0.4000°E)
Time: 20:11:11
(UTC+00:00)

IRS-1D - Pass Details

Date: 15 November 2025
Orbit: 736 x 811 km, 98.8° (Epoch: 14 December)

Event Time Altitude Azimuth Distance (km) Brightness Sun altitude
Rises 05:30:11 0° 13° (NNE) 3,200 6.8 -16.5°
Reaches altitude 10° 05:32:30 10° 11° (N) 2,265 6.0 -16.1°
Maximum altitude 05:37:25 66° 291° (WNW) 806 3.3 -15.4°
Drops below altitude 10° 05:42:16 10° 209° (SSW) 2,238 5.7 -14.6°
Sets 05:44:33 0° 207° (SSW) 3,159 6.5 -14.3°
